Somerville, NJ

6:03 AM EDT on June 23, 2017 (GMT -0400)
Somerset

Weather History for KSMQ - September, 2013

Change the Weather History Date:

Tuesday, September 3, 2013

  Actual Average Record
Temperature  
Mean Temperature 71 °F -  
Max Temperature 82 °F 79 °F 99 °F (1953)
Min Temperature 61 °F 57 °F 41 °F (1967)
Cooling Degree Days 6    
Growing Degree Days 21 (Base 50)    
Moisture  
Dew Point 66 °F    
Average Humidity 84    
Maximum Humidity 100    
Minimum Humidity 42    
Precipitation  
Precipitation 0.00 in - - ()
Sea Level Pressure  
Sea Level Pressure 29.76 in    
Wind  
Wind Speed 2 mph (NW)    
Max Wind Speed 13 mph    
Max Gust Speed 20 mph    
Visibility 6 miles    
Events      
Averages and records for this station are not official NWS values.
T = Trace of Precipitation, MM = Missing Value Source: NWS Daily Summary

Daily Weather History Graph

Daily Weather History Graph

Search for Another Location

Airport or City:

Trip Planner

Search our weather history database for the weather conditions in past years. The results will help you decide how hot, cold, wet, or windy it might be!

Date:

Astronomy

Sep. 03, 2013 Rise Set
Actual Time 6:27 AM EDT 7:27 PM EDT
Civil Twilight 5:59 AM EDT 7:55 PM EDT
Nautical Twilight 5:26 AM EDT 8:28 PM EDT
Astronomical Twilight 4:52 AM EDT 9:02 PM EDT
Moon 4:39 AM EDT (9/3) 6:13 PM EDT (9/3)
Length of Visible Light 13h 55m
Length of Day
12h 59m
Waning Crescent, 3% of the Moon is Illuminated
Sep 3
Waning Crescent
Sep 5
New
Sep 12
First Quarter
Sep 19
Full
Sep 26
Last Quarter

Hourly Weather History & Observations

Time (EDT) Temp. Heat Index Dew Point Humidity Pressure Visibility Wind Dir Wind Speed Gust Speed Precip Events Conditions
12:05 AM 69.8 °F - 68.0 °F 94% 29.74 in 1.0 mi Calm Calm - N/A   Mostly Cloudy
12:12 AM 69.8 °F - 68.0 °F 94% 29.74 in 3.0 mi Calm Calm - N/A   Mostly Cloudy
12:22 AM 69.8 °F - 68.0 °F 94% 29.74 in 1.8 mi Calm Calm - N/A   Overcast
12:25 AM 69.8 °F - 68.0 °F 94% 29.74 in 0.8 mi Calm Calm - N/A   Overcast
12:41 AM 69.8 °F - 68.0 °F 94% 29.73 in 0.8 mi Calm Calm - N/A   Mist
12:45 AM 69.8 °F - 68.0 °F 94% 29.74 in 2.0 mi NW 3.5 mph - N/A   Overcast
12:53 AM 69.1 °F - 68.0 °F 96% 29.75 in 1.5 mi Variable 3.5 mph - N/A   Overcast
1:00 AM 69.8 °F - 69.8 °F 100% 29.75 in 3.0 mi Calm Calm - N/A   Overcast
1:13 AM 69.8 °F - 69.8 °F 100% 29.74 in 6.0 mi Calm Calm - N/A   Overcast
1:29 AM 69.8 °F - 69.8 °F 100% 29.73 in 8.0 mi Calm Calm - N/A   Mostly Cloudy
1:40 AM 69.8 °F - 68.0 °F 94% 29.73 in 1.5 mi Calm Calm - N/A   Mostly Cloudy
1:46 AM 68.0 °F - 66.2 °F 94% 29.73 in 0.8 mi Calm Calm - N/A   Mostly Cloudy
1:53 AM 69.1 °F - 68.0 °F 96% 29.73 in 1.5 mi South 3.5 mph - N/A   Overcast
1:58 AM 69.8 °F - 68.0 °F 94% 29.73 in 3.0 mi South 3.5 mph - N/A   Overcast
2:19 AM 71.6 °F - 69.8 °F 94% 29.73 in 2.5 mi Calm Calm - N/A   Overcast
2:37 AM 71.6 °F - 69.8 °F 94% 29.73 in 1.8 mi Calm Calm - N/A   Overcast
2:43 AM 71.6 °F - 71.6 °F 100% 29.72 in 3.0 mi Calm Calm - N/A   Overcast
2:53 AM 71.1 °F - 70.0 °F 96% 29.72 in 4.0 mi NNW 3.5 mph - N/A   Overcast
3:01 AM 71.6 °F - 69.8 °F 94% 29.72 in 4.0 mi Calm Calm - N/A   Overcast
3:29 AM 71.6 °F - 69.8 °F 94% 29.71 in 5.0 mi Calm Calm - N/A   Overcast
3:53 AM 71.1 °F - 70.0 °F 96% 29.72 in 4.0 mi Calm Calm - N/A   Overcast
4:53 AM 71.1 °F - 70.0 °F 96% 29.71 in 8.0 mi Calm Calm - N/A   Overcast
5:11 AM 71.6 °F - 69.8 °F 94% 29.71 in 8.0 mi Calm Calm - N/A   Overcast
5:53 AM 70.0 °F - 69.1 °F 97% 29.73 in 8.0 mi NW 3.5 mph - N/A   Overcast
6:53 AM 70.0 °F - 68.0 °F 93% 29.75 in 9.0 mi Calm Calm - N/A   Overcast
7:38 AM 69.8 °F - 69.8 °F 100% 29.76 in 7.0 mi Calm Calm - N/A   Overcast
7:53 AM 71.1 °F - 68.0 °F 90% 29.77 in 9.0 mi Calm Calm - N/A   Overcast
8:08 AM 71.6 °F - 69.8 °F 94% 29.77 in 9.0 mi Calm Calm - N/A   Overcast
8:34 AM 71.6 °F - 69.8 °F 94% 29.77 in 10.0 mi NW 3.5 mph - N/A   Scattered Clouds
8:53 AM 73.0 °F - 69.1 °F 87% 29.77 in 10.0 mi Calm Calm - N/A   Partly Cloudy
9:24 AM 73.4 °F - 68.0 °F 83% 29.78 in 10.0 mi North 3.5 mph - N/A   Mostly Cloudy
9:53 AM 75.0 °F - 66.9 °F 76% 29.78 in 10.0 mi NNW 12.7 mph 16.1 mph N/A   Mostly Cloudy
10:25 AM 75.2 °F - 62.6 °F 65% 29.79 in 10.0 mi North 10.4 mph 19.6 mph N/A   Mostly Cloudy
10:53 AM 77.0 °F - 62.1 °F 60% 29.79 in 10.0 mi North 9.2 mph - N/A   Mostly Cloudy
11:53 AM 75.9 °F - 57.9 °F 54% 29.80 in 10.0 mi NNW 10.4 mph - N/A   Mostly Cloudy
12:53 PM 78.1 °F - 59.0 °F 52% 29.80 in 10.0 mi NNW 9.2 mph - N/A   Mostly Cloudy
1:53 PM 80.1 °F 81.1 °F 61.0 °F 52% 29.79 in 10.0 mi Variable 4.6 mph - N/A   Mostly Cloudy
2:53 PM 79.0 °F - 57.9 °F 48% 29.78 in 10.0 mi NW 8.1 mph - N/A   Mostly Cloudy
3:53 PM 81.0 °F 81.1 °F 57.9 °F 45% 29.77 in 10.0 mi Variable 3.5 mph - N/A   Clear
4:53 PM 81.0 °F 80.8 °F 55.9 °F 42% 29.77 in 10.0 mi WNW 6.9 mph - N/A   Clear
5:53 PM 79.0 °F - 55.9 °F 45% 29.79 in 10.0 mi Variable 5.8 mph - N/A   Clear
6:53 PM 75.0 °F - 57.0 °F 53% 29.80 in 10.0 mi Variable 3.5 mph - N/A   Clear
7:53 PM 66.9 °F - 61.0 °F 81% 29.83 in 10.0 mi Calm Calm - N/A   Partly Cloudy
8:53 PM 64.9 °F - 60.1 °F 84% 29.85 in 10.0 mi Calm Calm - N/A   Clear
9:53 PM 63.0 °F - 60.1 °F 90% 29.87 in 10.0 mi Calm Calm - N/A   Clear
10:53 PM 61.0 °F - 59.0 °F 93% 29.89 in 10.0 mi Calm Calm - N/A   Clear
11:53 PM 61.0 °F - 59.0 °F 93% 29.90 in 10.0 mi Calm Calm - 0.00 in   Clear